Time,TemperatureF,DewpointF,PressureIn,WindDirection,WindDirectionDegrees,WindSpeedMPH,WindSpeedGustMPH,Humidity,HourlyPrecipIn,Conditions,Clouds,dailyrainin,SoftwareType,DateUTC
2013-11-27 00:00:00,48.6,42.7,29.99,NE,56,0.0,2.0,80,0.00,,,0.00,Wunderground v.1.15,2013-11-27 08:00:00,
2013-11-27 00:05:00,48.6,42.7,29.99,NE,56,0.0,2.0,80,0.00,,,0.00,Wunderground v.1.15,2013-11-27 08:05:00,
2013-11-27 00:10:00,48.6,42.7,29.99,NE,56,0.0,0.0,80,0.00,,,0.00,Wunderground v.1.15,2013-11-27 08:10:00,
2013-11-27 00:20:00,48.8,43.2,29.99,NE,56,0.0,0.0,81,0.00,,,0.00,Wunderground v.1.15,2013-11-27 08:20:00,
2013-11-27 00:30:00,49.1,43.5,29.98,NE,56,0.0,0.0,81,0.00,,,0.00,Wunderground v.1.15,2013-11-27 08:30:00,
2013-11-27 00:40:00,49.3,43.4,29.98,NE,56,0.0,0.0,80,0.00,,,0.00,Wunderground v.1.15,2013-11-27 08:40:00,
2013-11-27 00:50:00,49.4,43.5,29.98,NE,56,0.0,0.0,80,0.00,,,0.00,Wunderground v.1.15,2013-11-27 08:50:00,
2013-11-27 00:55:00,49.5,43.3,29.98,NE,56,0.0,2.0,79,0.00,,,0.00,Wunderground v.1.15,2013-11-27 08:55:00,
2013-11-27 01:05:00,49.4,43.2,29.98,NE,56,0.0,1.0,79,0.00,,,0.00,Wunderground v.1.15,2013-11-27 09:05:00,
2013-11-27 01:15:00,49.3,43.1,29.98,NE,56,0.0,0.0,79,0.00,,,0.00,Wunderground v.1.15,2013-11-27 09:15:00,
2013-11-27 01:25:00,49.1,42.9,29.98,NE,56,0.0,0.0,79,0.00,,,0.00,Wunderground v.1.15,2013-11-27 09:25:00,
2013-11-27 01:30:00,49.0,42.8,29.98,NE,56,0.0,0.0,79,0.00,,,0.00,Wunderground v.1.15,2013-11-27 09:30:00,
2013-11-27 01:40:00,48.7,42.5,29.98,NE,56,0.0,0.0,79,0.00,,,0.00,Wunderground v.1.15,2013-11-27 09:40:00,
2013-11-27 01:50:00,48.5,42.6,29.98,NE,56,0.0,0.0,80,0.00,,,0.00,Wunderground v.1.15,2013-11-27 09:50:00,
2013-11-27 02:00:00,48.3,42.4,29.98,NE,56,0.0,0.0,80,0.00,,,0.00,Wunderground v.1.15,2013-11-27 10:00:00,
2013-11-27 02:10:00,48.1,42.5,29.98,NE,56,0.0,0.0,81,0.00,,,0.00,Wunderground v.1.15,2013-11-27 10:10:00,
2013-11-27 02:15:00,48.0,42.4,29.97,NE,56,0.0,0.0,81,0.00,,,0.00,Wunderground v.1.15,2013-11-27 10:15:00,
2013-11-27 02:25:00,47.8,42.3,29.97,NE,56,0.0,0.0,81,0.00,,,0.00,Wunderground v.1.15,2013-11-27 10:25:00,
2013-11-27 02:35:00,47.6,42.1,29.97,NE,56,0.0,0.0,81,0.00,,,0.00,Wunderground v.1.15,2013-11-27 10:35:00,
2013-11-27 02:45:00,47.4,41.9,29.96,NE,56,0.0,0.0,81,0.00,,,0.00,Wunderground v.1.15,2013-11-27 10:45:00,
2013-11-27 02:50:00,47.4,41.9,29.96,NE,56,0.0,0.0,81,0.00,,,0.00,Wunderground v.1.15,2013-11-27 10:50:00,
2013-11-27 02:55:00,47.3,42.1,29.96,NE,56,0.0,0.0,82,0.00,,,0.00,Wunderground v.1.15,2013-11-27 10:55:00,
2013-11-27 03:00:00,47.2,42.0,29.96,NE,56,0.0,0.0,82,0.00,,,0.00,Wunderground v.1.15,2013-11-27 11:00:00,
2013-11-27 03:05:00,47.1,41.9,29.96,NE,56,0.0,0.0,82,0.00,,,0.00,Wunderground v.1.15,2013-11-27 11:05:00,
2013-11-27 03:15:00,47.0,41.8,29.95,NE,56,0.0,0.0,82,0.00,,,0.00,Wunderground v.1.15,2013-11-27 11:15:00,
2013-11-27 03:25:00,46.8,41.3,29.95,NE,56,0.0,0.0,81,0.00,,,0.00,Wunderground v.1.15,2013-11-27 11:25:00,
2013-11-27 03:30:00,46.7,41.2,29.95,NE,56,0.0,0.0,81,0.00,,,0.00,Wunderground v.1.15,2013-11-27 11:30:00,
2013-11-27 03:40:00,46.4,41.2,29.94,NE,56,0.0,1.0,82,0.00,,,0.00,Wunderground v.1.15,2013-11-27 11:40:00,
2013-11-27 03:50:00,46.3,41.1,29.94,NE,56,0.0,0.0,82,0.00,,,0.00,Wunderground v.1.15,2013-11-27 11:50:00,
2013-11-27 04:00:00,46.1,40.9,29.94,NE,56,0.0,0.0,82,0.00,,,0.00,Wunderground v.1.15,2013-11-27 12:00:00,
2013-11-27 04:10:00,45.8,40.9,29.94,NE,56,0.0,0.0,83,0.00,,,0.00,Wunderground v.1.15,2013-11-27 12:10:00,
2013-11-27 04:20:00,45.7,40.8,29.93,NE,56,0.0,0.0,83,0.00,,,0.00,Wunderground v.1.15,2013-11-27 12:20:00,
2013-11-27 04:25:00,45.6,40.7,29.93,NE,56,0.0,0.0,83,0.00,,,0.00,Wunderground v.1.15,2013-11-27 12:25:00,
2013-11-27 04:30:00,45.5,40.9,29.93,NE,56,0.0,0.0,84,0.00,,,0.00,Wunderground v.1.15,2013-11-27 12:30:00,
2013-11-27 04:40:00,45.4,40.8,29.93,NE,56,0.0,0.0,84,0.00,,,0.00,Wunderground v.1.15,2013-11-27 12:40:00,
2013-11-27 04:45:00,45.3,40.7,29.93,NE,56,0.0,0.0,84,0.00,,,0.00,Wunderground v.1.15,2013-11-27 12:45:00,
2013-11-27 04:55:00,45.1,40.6,29.92,NE,56,0.0,0.0,84,0.00,,,0.00,Wunderground v.1.15,2013-11-27 12:55:00,
2013-11-27 05:05:00,45.1,40.9,29.92,NE,56,0.0,0.0,85,0.00,,,0.00,Wunderground v.1.15,2013-11-27 13:05:00,
2013-11-27 05:15:00,45.0,40.8,29.92,NE,56,0.0,0.0,85,0.00,,,0.00,Wunderground v.1.15,2013-11-27 13:15:00,
2013-11-27 05:25:00,44.9,40.7,29.92,NE,56,0.0,0.0,85,0.00,,,0.00,Wunderground v.1.15,2013-11-27 13:25:00,
2013-11-27 05:35:00,44.7,40.5,29.92,NE,56,0.0,0.0,85,0.00,,,0.00,Wunderground v.1.15,2013-11-27 13:35:00,
2013-11-27 05:45:00,44.5,40.6,29.92,NE,56,0.0,0.0,86,0.00,,,0.00,Wunderground v.1.15,2013-11-27 13:45:00,
2013-11-27 05:55:00,44.4,40.5,29.92,NE,56,0.0,0.0,86,0.00,,,0.00,Wunderground v.1.15,2013-11-27 13:55:00,
2013-11-27 06:05:00,44.3,40.4,29.92,NE,56,0.0,0.0,86,0.00,,,0.00,Wunderground v.1.15,2013-11-27 14:05:00,
2013-11-27 06:15:00,44.1,40.2,29.92,NE,56,0.0,0.0,86,0.00,,,0.00,Wunderground v.1.15,2013-11-27 14:15:00,
2013-11-27 06:25:00,43.8,40.2,29.92,NE,56,0.0,0.0,87,0.00,,,0.00,Wunderground v.1.15,2013-11-27 14:25:00,
2013-11-27 06:35:00,43.6,40.0,29.92,NE,56,0.0,0.0,87,0.00,,,0.00,Wunderground v.1.15,2013-11-27 14:35:00,
2013-11-27 06:45:00,43.4,40.1,29.91,NE,56,0.0,0.0,88,0.00,,,0.00,Wunderground v.1.15,2013-11-27 14:45:00,
2013-11-27 06:55:00,43.2,39.9,29.91,NE,56,0.0,0.0,88,0.00,,,0.00,Wunderground v.1.15,2013-11-27 14:55:00,
2013-11-27 07:00:00,43.2,39.9,29.91,NE,56,0.0,0.0,88,0.00,,,0.00,Wunderground v.1.15,2013-11-27 15:00:00,
2013-11-27 07:10:00,43.2,40.2,29.91,NE,56,0.0,0.0,89,0.00,,,0.00,Wunderground v.1.15,2013-11-27 15:10:00,
2013-11-27 07:20:00,43.1,40.1,29.91,NE,56,0.0,0.0,89,0.00,,,0.00,Wunderground v.1.15,2013-11-27 15:20:00,
2013-11-27 07:30:00,43.4,40.7,29.91,NE,56,0.0,0.0,90,0.00,,,0.00,Wunderground v.1.15,2013-11-27 15:30:00,
2013-11-27 07:35:00,43.4,40.4,29.91,NE,56,0.0,0.0,89,0.00,,,0.00,Wunderground v.1.15,2013-11-27 15:35:00,
2013-11-27 07:45:00,43.6,40.6,29.90,NE,56,0.0,0.0,89,0.00,,,0.00,Wunderground v.1.15,2013-11-27 15:45:00,
2013-11-27 07:55:00,44.1,41.4,29.91,NE,56,0.0,0.0,90,0.00,,,0.00,Wunderground v.1.15,2013-11-27 15:55:00,
2013-11-27 08:05:00,44.9,42.1,29.91,NE,56,0.0,1.0,90,0.00,,,0.00,Wunderground v.1.15,2013-11-27 16:05:00,
2013-11-27 08:15:00,46.1,42.7,29.91,East,83,1.0,2.0,88,0.00,,,0.00,Wunderground v.1.15,2013-11-27 16:15:00,
2013-11-27 08:20:00,46.8,43.1,29.91,East,84,1.0,1.0,87,0.00,,,0.00,Wunderground v.1.15,2013-11-27 16:20:00,
2013-11-27 08:30:00,47.8,44.1,29.91,East,84,0.0,0.0,87,0.00,,,0.00,Wunderground v.1.15,2013-11-27 16:30:00,
2013-11-27 08:40:00,48.4,44.1,29.91,East,84,0.0,0.0,85,0.00,,,0.00,Wunderground v.1.15,2013-11-27 16:40:00,
2013-11-27 08:50:00,49.4,45.1,29.91,East,84,0.0,0.0,85,0.00,,,0.00,Wunderground v.1.15,2013-11-27 16:50:00,
2013-11-27 09:00:00,51.6,46.3,29.91,East,84,0.0,0.0,82,0.00,,,0.00,Wunderground v.1.15,2013-11-27 17:00:00,
2013-11-27 09:10:00,54.6,47.5,29.91,East,84,0.0,0.0,77,0.00,,,0.00,Wunderground v.1.15,2013-11-27 17:10:00,
2013-11-27 09:20:00,56.0,47.1,29.91,SW,214,1.0,2.0,72,0.00,,,0.00,Wunderground v.1.15,2013-11-27 17:20:00,
2013-11-27 09:30:00,55.3,47.2,29.92,SW,224,3.0,6.0,74,0.00,,,0.00,Wunderground v.1.15,2013-11-27 17:30:00,
2013-11-27 09:35:00,54.0,46.6,29.91,WSW,242,4.0,6.0,76,0.00,,,0.00,Wunderground v.1.15,2013-11-27 17:35:00,
2013-11-27 09:45:00,53.2,46.9,29.92,WSW,254,1.0,3.0,79,0.00,,,0.00,Wunderground v.1.15,2013-11-27 17:45:00,
2013-11-27 09:55:00,54.3,47.9,29.91,WSW,253,0.0,0.0,79,0.00,,,0.00,Wunderground v.1.15,2013-11-27 17:55:00,
2013-11-27 10:05:00,57.0,48.8,29.91,South,191,0.0,2.0,74,0.00,,,0.00,Wunderground v.1.15,2013-11-27 18:05:00,
2013-11-27 10:10:00,58.2,48.8,29.91,SSW,195,1.0,1.0,71,0.00,,,0.00,Wunderground v.1.15,2013-11-27 18:10:00,
2013-11-27 10:20:00,59.1,48.9,29.91,SSW,197,1.0,1.0,69,0.00,,,0.00,Wunderground v.1.15,2013-11-27 18:20:00,
2013-11-27 10:30:00,59.2,47.8,29.91,SW,221,2.0,2.0,66,0.00,,,0.00,Wunderground v.1.15,2013-11-27 18:30:00,
2013-11-27 10:40:00,58.2,48.1,29.90,SW,233,2.0,2.0,69,0.00,,,0.00,Wunderground v.1.15,2013-11-27 18:40:00,
2013-11-27 10:50:00,59.6,49.4,29.89,SSW,209,1.0,1.0,69,0.00,,,0.00,Wunderground v.1.15,2013-11-27 18:50:00,
2013-11-27 11:00:00,61.8,49.5,29.89,SSW,209,1.0,2.0,64,0.00,,,0.00,Wunderground v.1.15,2013-11-27 19:00:00,
2013-11-27 11:10:00,62.4,50.1,29.88,South,187,3.0,3.0,64,0.00,,,0.00,Wunderground v.1.15,2013-11-27 19:10:00,
2013-11-27 11:20:00,63.2,48.6,29.87,SSW,196,1.0,2.0,59,0.00,,,0.00,Wunderground v.1.15,2013-11-27 19:20:00,
2013-11-27 11:30:00,64.0,46.5,29.86,South,173,1.0,3.0,53,0.00,,,0.00,Wunderground v.1.15,2013-11-27 19:30:00,
2013-11-27 11:35:00,64.8,47.3,29.86,SSW,200,1.0,3.0,53,0.00,,,0.00,Wunderground v.1.15,2013-11-27 19:35:00,
2013-11-27 11:45:00,65.8,46.1,29.86,SSE,162,2.0,2.0,49,0.00,,,0.00,Wunderground v.1.15,2013-11-27 19:45:00,
2013-11-27 11:55:00,64.8,48.7,29.86,SW,236,3.0,5.0,56,0.00,,,0.00,Wunderground v.1.15,2013-11-27 19:55:00,
2013-11-27 12:00:00,63.8,48.7,29.86,WSW,246,3.0,4.0,58,0.00,,,0.00,Wunderground v.1.15,2013-11-27 20:00:00,
2013-11-27 12:05:00,63.0,48.0,29.85,WSW,238,3.0,4.0,58,0.00,,,0.00,Wunderground v.1.15,2013-11-27 20:05:00,
2013-11-27 12:15:00,62.9,48.8,29.85,SSW,203,3.0,3.0,60,0.00,,,0.00,Wunderground v.1.15,2013-11-27 20:15:00,
2013-11-27 12:25:00,62.9,48.8,29.85,SW,219,3.0,4.0,60,0.00,,,0.00,Wunderground v.1.15,2013-11-27 20:25:00,
2013-11-27 12:35:00,63.6,49.5,29.84,SW,232,3.0,4.0,60,0.00,,,0.00,Wunderground v.1.15,2013-11-27 20:35:00,
2013-11-27 12:45:00,64.1,49.9,29.84,SW,224,3.0,5.0,60,0.00,,,0.00,Wunderground v.1.15,2013-11-27 20:45:00,
2013-11-27 12:50:00,64.2,50.0,29.83,SW,228,4.0,5.0,60,0.00,,,0.00,Wunderground v.1.15,2013-11-27 20:50:00,
2013-11-27 12:55:00,64.7,50.5,29.83,SSW,197,5.0,5.0,60,0.00,,,0.00,Wunderground v.1.15,2013-11-27 20:55:00,
2013-11-27 13:10:00,66.6,49.9,29.83,SW,223,3.0,6.0,55,0.00,,,0.00,Wunderground v.1.15,2013-11-27 21:10:00,
2013-11-27 13:15:00,66.4,49.7,29.83,WSW,238,3.0,6.0,55,0.00,,,0.00,Wunderground v.1.15,2013-11-27 21:15:00,
2013-11-27 13:25:00,64.9,50.2,29.82,South,178,5.0,6.0,59,0.00,,,0.00,Wunderground v.1.15,2013-11-27 21:25:00,
2013-11-27 13:35:00,65.1,50.4,29.82,South,177,2.0,6.0,59,0.00,,,0.00,Wunderground v.1.15,2013-11-27 21:35:00,
2013-11-27 13:40:00,65.7,50.5,29.82,WSW,250,1.0,6.0,58,0.00,,,0.00,Wunderground v.1.15,2013-11-27 21:40:00,
2013-11-27 13:50:00,67.4,49.2,29.82,North,360,1.0,6.0,52,0.00,,,0.00,Wunderground v.1.15,2013-11-27 21:50:00,
2013-11-27 14:00:00,69.1,49.1,29.81,ENE,59,1.0,6.0,49,0.00,,,0.00,Wunderground v.1.15,2013-11-27 22:00:00,
2013-11-27 14:10:00,70.0,49.4,29.81,NNE,33,1.0,6.0,48,0.00,,,0.00,Wunderground v.1.15,2013-11-27 22:10:00,
2013-11-27 14:20:00,69.7,48.6,29.81,NE,46,2.0,2.0,47,0.00,,,0.00,Wunderground v.1.15,2013-11-27 22:20:00,
2013-11-27 14:30:00,67.0,49.8,29.81,SW,224,3.0,6.0,54,0.00,,,0.00,Wunderground v.1.15,2013-11-27 22:30:00,
2013-11-27 14:40:00,65.5,49.9,29.81,SSW,200,1.0,6.0,57,0.00,,,0.00,Wunderground v.1.15,2013-11-27 22:40:00,
2013-11-27 14:50:00,64.7,49.6,29.81,SSW,213,2.0,2.0,58,0.00,,,0.00,Wunderground v.1.15,2013-11-27 22:50:00,
2013-11-27 14:55:00,64.4,49.8,29.81,NW,314,1.0,6.0,59,0.00,,,0.00,Wunderground v.1.15,2013-11-27 22:55:00,
2013-11-27 15:05:00,65.0,49.4,29.81,North,1,1.0,6.0,57,0.00,,,0.00,Wunderground v.1.15,2013-11-27 23:05:00,
2013-11-27 15:15:00,65.6,49.0,29.81,NE,44,2.0,6.0,55,0.00,,,0.00,Wunderground v.1.15,2013-11-27 23:15:00,
2013-11-27 15:25:00,66.2,48.6,29.81,NE,38,2.0,6.0,53,0.00,,,0.00,Wunderground v.1.15,2013-11-27 23:25:00,
2013-11-27 15:35:00,65.6,48.5,29.81,NE,35,2.0,6.0,54,0.00,,,0.00,Wunderground v.1.15,2013-11-27 23:35:00,
2013-11-27 15:45:00,64.7,48.6,29.81,NE,53,2.0,6.0,56,0.00,,,0.00,Wunderground v.1.15,2013-11-27 23:45:00,
2013-11-27 15:55:00,63.7,48.2,29.81,East,90,2.0,6.0,57,0.00,,,0.00,Wunderground v.1.15,2013-11-27 23:55:00,
2013-11-27 16:05:00,63.0,48.4,29.81,East,97,1.0,1.0,59,0.00,,,0.00,Wunderground v.1.15,2013-11-28 00:05:00,
2013-11-27 16:10:00,62.7,48.2,29.81,East,94,1.0,1.0,59,0.00,,,0.00,Wunderground v.1.15,2013-11-28 00:10:00,
2013-11-27 16:20:00,62.1,48.0,29.81,East,86,1.0,1.0,60,0.00,,,0.00,Wunderground v.1.15,2013-11-28 00:20:00,
2013-11-27 16:25:00,61.7,48.1,29.81,ENE,59,1.0,3.0,61,0.00,,,0.00,Wunderground v.1.15,2013-11-28 00:25:00,
2013-11-27 16:35:00,61.0,47.4,29.82,ENE,60,1.0,1.0,61,0.00,,,0.00,Wunderground v.1.15,2013-11-28 00:35:00,
2013-11-27 16:45:00,60.6,47.5,29.82,ENE,60,0.0,0.0,62,0.00,,,0.00,Wunderground v.1.15,2013-11-28 00:45:00,
2013-11-27 16:50:00,60.2,47.6,29.82,ENE,74,0.0,0.0,63,0.00,,,0.00,Wunderground v.1.15,2013-11-28 00:50:00,
2013-11-27 16:55:00,59.8,47.2,29.82,East,82,0.0,0.0,63,0.00,,,0.00,Wunderground v.1.15,2013-11-28 00:55:00,
2013-11-27 17:00:00,59.4,47.2,29.82,East,82,0.0,3.0,64,0.00,,,0.00,Wunderground v.1.15,2013-11-28 01:00:00,
2013-11-27 17:05:00,59.0,47.2,29.82,East,82,0.0,3.0,65,0.00,,,0.00,Wunderground v.1.15,2013-11-28 01:05:00,
2013-11-27 17:15:00,58.4,47.1,29.82,East,82,0.0,3.0,66,0.00,,,0.00,Wunderground v.1.15,2013-11-28 01:15:00,
2013-11-27 17:25:00,57.8,46.9,29.82,East,82,0.0,3.0,67,0.00,,,0.00,Wunderground v.1.15,2013-11-28 01:25:00,
2013-11-27 17:35:00,57.2,46.7,29.82,East,82,0.0,3.0,68,0.00,,,0.00,Wunderground v.1.15,2013-11-28 01:35:00,
2013-11-27 17:45:00,56.6,46.5,29.82,East,82,0.0,3.0,69,0.00,,,0.00,Wunderground v.1.15,2013-11-28 01:45:00,
2013-11-27 17:55:00,56.1,46.4,29.82,East,82,0.0,3.0,70,0.00,,,0.00,Wunderground v.1.15,2013-11-28 01:55:00,
2013-11-27 18:05:00,55.6,46.3,29.82,East,82,0.0,3.0,71,0.00,,,0.00,Wunderground v.1.15,2013-11-28 02:05:00,
2013-11-27 18:15:00,55.1,45.9,29.82,East,82,0.0,3.0,71,0.00,,,0.00,Wunderground v.1.15,2013-11-28 02:15:00,
2013-11-27 18:20:00,54.9,46.0,29.82,East,82,0.0,3.0,72,0.00,,,0.00,Wunderground v.1.15,2013-11-28 02:20:00,
2013-11-27 18:30:00,54.5,45.7,29.82,East,82,0.0,3.0,72,0.00,,,0.00,Wunderground v.1.15,2013-11-28 02:30:00,
2013-11-27 18:40:00,54.0,45.2,29.82,East,82,0.0,3.0,72,0.00,,,0.00,Wunderground v.1.15,2013-11-28 02:40:00,
2013-11-27 18:50:00,53.6,45.5,29.82,East,82,0.0,3.0,74,0.00,,,0.00,Wunderground v.1.15,2013-11-28 02:50:00,
2013-11-27 19:00:00,53.2,45.1,29.82,East,82,0.0,3.0,74,0.00,,,0.00,Wunderground v.1.15,2013-11-28 03:00:00,
2013-11-27 19:05:00,53.0,44.9,29.82,East,82,0.0,3.0,74,0.00,,,0.00,Wunderground v.1.15,2013-11-28 03:05:00,
2013-11-27 19:10:00,52.8,44.7,29.82,East,82,0.0,0.0,74,0.00,,,0.00,Wunderground v.1.15,2013-11-28 03:10:00,
2013-11-27 19:20:00,52.4,44.7,29.82,East,82,0.0,0.0,75,0.00,,,0.00,Wunderground v.1.15,2013-11-28 03:20:00,
2013-11-27 19:30:00,52.2,44.5,29.82,East,82,0.0,0.0,75,0.00,,,0.00,Wunderground v.1.15,2013-11-28 03:30:00,
2013-11-27 19:40:00,51.9,44.6,29.82,East,82,0.0,0.0,76,0.00,,,0.00,Wunderground v.1.15,2013-11-28 03:40:00,
2013-11-27 19:45:00,51.9,44.6,29.82,East,82,0.0,0.0,76,0.00,,,0.00,Wunderground v.1.15,2013-11-28 03:45:00,
2013-11-27 19:50:00,51.8,44.5,29.83,East,82,0.0,0.0,76,0.00,,,0.00,Wunderground v.1.15,2013-11-28 03:50:00,
2013-11-27 20:05:00,51.8,44.8,29.83,East,82,0.0,1.0,77,0.00,,,0.00,Wunderground v.1.15,2013-11-28 04:05:00,
2013-11-27 20:15:00,51.9,44.9,29.82,East,82,0.0,0.0,77,0.00,,,0.00,Wunderground v.1.15,2013-11-28 04:15:00,
2013-11-27 20:25:00,51.8,44.8,29.83,East,82,0.0,0.0,77,0.00,,,0.00,Wunderground v.1.15,2013-11-28 04:25:00,
2013-11-27 20:30:00,51.8,44.8,29.82,East,82,0.0,0.0,77,0.00,,,0.00,Wunderground v.1.15,2013-11-28 04:30:00,
2013-11-27 20:40:00,51.6,45.0,29.83,East,82,0.0,0.0,78,0.00,,,0.00,Wunderground v.1.15,2013-11-28 04:40:00,
2013-11-27 20:50:00,51.5,44.9,29.83,East,82,0.0,0.0,78,0.00,,,0.00,Wunderground v.1.15,2013-11-28 04:50:00,
2013-11-27 21:00:00,51.4,45.1,29.83,East,82,0.0,0.0,79,0.00,,,0.00,Wunderground v.1.15,2013-11-28 05:00:00,
2013-11-27 21:05:00,51.4,44.8,29.83,East,82,0.0,0.0,78,0.00,,,0.00,Wunderground v.1.15,2013-11-28 05:05:00,
2013-11-27 21:10:00,51.4,45.1,29.83,East,82,0.0,0.0,79,0.00,,,0.00,Wunderground v.1.15,2013-11-28 05:10:00,
2013-11-27 21:15:00,51.3,45.0,29.83,East,82,0.0,0.0,79,0.00,,,0.00,Wunderground v.1.15,2013-11-28 05:15:00,
2013-11-27 21:25:00,51.1,44.8,29.83,East,82,0.0,0.0,79,0.00,,,0.00,Wunderground v.1.15,2013-11-28 05:25:00,
2013-11-27 21:30:00,51.0,44.7,29.83,East,82,0.0,0.0,79,0.00,,,0.00,Wunderground v.1.15,2013-11-28 05:30:00,
2013-11-27 21:40:00,50.8,44.5,29.83,East,82,0.0,0.0,79,0.00,,,0.00,Wunderground v.1.15,2013-11-28 05:40:00,
2013-11-27 21:45:00,50.6,44.3,29.83,East,82,0.0,0.0,79,0.00,,,0.00,Wunderground v.1.15,2013-11-28 05:45:00,
2013-11-27 21:50:00,50.5,44.6,29.84,East,82,0.0,0.0,80,0.00,,,0.00,Wunderground v.1.15,2013-11-28 05:50:00,
2013-11-27 22:00:00,50.3,44.4,29.84,East,82,0.0,0.0,80,0.00,,,0.00,Wunderground v.1.15,2013-11-28 06:00:00,
2013-11-27 22:05:00,50.2,44.3,29.84,East,82,0.0,0.0,80,0.00,,,0.00,Wunderground v.1.15,2013-11-28 06:05:00,
2013-11-27 22:15:00,49.9,44.0,29.84,East,82,0.0,0.0,80,0.00,,,0.00,Wunderground v.1.15,2013-11-28 06:15:00,
2013-11-27 22:20:00,49.8,44.2,29.84,East,82,0.0,0.0,81,0.00,,,0.00,Wunderground v.1.15,2013-11-28 06:20:00,
2013-11-27 22:30:00,49.5,43.9,29.83,East,82,0.0,0.0,81,0.00,,,0.00,Wunderground v.1.15,2013-11-28 06:30:00,
2013-11-27 22:40:00,49.2,43.9,29.83,East,82,0.0,0.0,82,0.00,,,0.00,Wunderground v.1.15,2013-11-28 06:40:00,
2013-11-27 22:45:00,49.0,43.7,29.83,East,82,0.0,0.0,82,0.00,,,0.00,Wunderground v.1.15,2013-11-28 06:45:00,
2013-11-27 22:55:00,48.8,43.5,29.84,East,82,0.0,1.0,82,0.00,,,0.00,Wunderground v.1.15,2013-11-28 06:55:00,
2013-11-27 23:05:00,48.6,43.7,29.84,East,82,0.0,0.0,83,0.00,,,0.00,Wunderground v.1.15,2013-11-28 07:05:00,
2013-11-27 23:15:00,48.6,44.0,29.84,East,82,0.0,0.0,84,0.00,,,0.00,Wunderground v.1.15,2013-11-28 07:15:00,
2013-11-27 23:25:00,48.7,44.4,29.84,East,82,0.0,0.0,85,0.00,,,0.00,Wunderground v.1.15,2013-11-28 07:25:00,
2013-11-27 23:35:00,48.8,44.5,29.84,East,82,0.0,0.0,85,0.00,,,0.00,Wunderground v.1.15,2013-11-28 07:35:00,
2013-11-27 23:45:00,48.6,44.3,29.84,East,82,0.0,0.0,85,0.00,,,0.00,Wunderground v.1.15,2013-11-28 07:45:00,
2013-11-27 23:55:00,48.4,44.1,29.84,East,82,0.0,0.0,85,0.00,,,0.00,Wunderground v.1.15,2013-11-28 07:55:00,